DL1GHN-6 Weather Reports


time (UTC)temp
C
wind
direction
speed
KPH
gust
KPH
rain 1hr
cm
rain 24hr
cm
rain mn
cm
humidity
%
barometer
mb
20200227121432 2 154 4.8 9.7 0.15 0.36 0.15 84 998.2
20200227120932 2 169 1.6 6.4 0.15 0.33 0.15 83 998.5
20200227120431 2 180 3.2 11.3 0.13 0.33 0.13 82 998.6
20200227115932 2 161 6.4 11.3 0.08 0.28 0.08 82 998.6
20200227115432 3 159 9.7 16.1 0.05 0.23 0.05 81 999.2
20200227114932 3 172 4.8 14.5 0.05 0.23 0.05 80 999.6
20200227114431 3 177 6.4 12.9 0.03 0.23 0.03 79 1000.0
20200227113932 3 138 11.3 25.7 0.00 0.20 0.00 78 1000.1
20200227113432 3 121 6.4 14.5 0.00 0.20 0.00 77 1000.2
20200227112931 3 130 9.7 14.5 0.00 0.20 0.00 76 1000.5
20200227112431 4 148 9.7 24.1 0.00 0.20 0.00 75 1000.6
20200227111931 4 145 11.3 27.4 0.00 0.20 0.00 74 1000.8
20200227111432 4 165 14.5 22.5 0.00 0.20 0.00 72 1001.0
20200227110932 4 128 11.3 29.0 0.00 0.20 0.00 71 1001.2
20200227110432 5 148 14.5 22.5 0.00 0.20 0.00 70 1001.4
20200227105931 5 175 11.3 35.4 0.00 0.20 0.00 68 1001.8
20200227105431 5 164 12.9 35.4 0.00 0.20 0.00 65 1001.8
20200227104932 5 194 8.0 14.5 0.00 0.20 0.00 65 1001.9
20200227104431 5 147 8.0 17.7 0.00 0.20 0.00 65 1002.1
20200227103931 5 192 8.0 19.3 0.00 0.20 0.00 65 1002.3
20200227103432 5 190 4.8 17.7 0.00 0.20 0.00 66 1002.4
20200227102931 5 167 6.4 16.1 0.00 0.20 0.00 66 1002.7
20200227102432 5 144 4.8 12.9 0.00 0.20 0.00 67 1002.8
20200227101932 5 196 3.2 9.7 0.00 0.20 0.00 67 1003.1
20200227101431 5 173 8.0 17.7 0.00 0.20 0.00 67 1003.4
20200227100931 5 182 9.7 17.7 0.00 0.20 0.00 67 1003.5
20200227100431 5 209 8.0 16.1 0.00 0.20 0.00 68 1003.8
20200227095931 5 177 6.4 19.3 0.00 0.23 0.00 68 1003.9
20200227095431 5 180 6.4 14.5 0.00 0.23 0.00 69 1004.1
20200227094932 5 118 4.8 17.7 0.00 0.23 0.00 69 1004.2
20200227094431 5 184 3.2 16.1 0.00 0.23 0.00 69 1004.4
20200227093931 5 194 9.7 22.5 0.00 0.23 0.00 69 1004.6
20200227093431 5 211 8.0 14.5 0.00 0.23 0.00 70 1004.7
20200227092932 5 166 9.7 17.7 0.00 0.23 0.00 70 1005.0
20200227092432 5 221 9.7 16.1 0.00 0.23 0.00 71 1005.2
20200227091932 5 216 4.8 14.5 0.00 0.23 0.00 72 1005.4
20200227091432 5 163 6.4 14.5 0.00 0.23 0.00 73 1005.6
20200227090932 5 213 8.0 17.7 0.00 0.23 0.00 73 1005.7
20200227090432 5 208 6.4 22.5 0.00 0.23 0.00 73 1005.8
20200227085932 5 177 12.9 17.7 0.00 0.33 0.00 74 1006.0
20200227085432 5 138 11.3 24.1 0.00 0.33 0.00 74 1006.1
20200227084932 5 189 4.8 16.1 0.00 0.33 0.00 74 1006.3
20200227084432 5 197 8.0 16.1 0.00 0.33 0.00 75 1006.4
20200227083932 5 189 8.0 19.3 0.00 0.33 0.00 74 1006.5
20200227083431 5 198 12.9 25.7 0.00 0.33 0.00 75 1006.6
20200227082932 5 196 9.7 22.5 0.00 0.33 0.00 75 1006.8
20200227082431 5 190 11.3 22.5 0.00 0.33 0.00 75 1006.9
20200227081931 5 167 14.5 27.4 0.00 0.33 0.00 76 1007.1
20200227081432 4 179 11.3 29.0 0.00 0.33 0.00 77 1007.1
20200227080932 4 189 9.7 17.7 0.00 0.33 0.00 77 1007.3
20200227080432 4 213 9.7 27.4 0.00 0.33 0.00 78 1007.4
20200227075932 4 177 12.9 19.3 0.00 0.41 0.00 79 1007.6
20200227075432 4 196 9.7 19.3 0.00 0.41 0.00 79 1007.7
20200227074931 4 211 8.0 19.3 0.00 0.41 0.00 80 1007.7
20200227074432 3 193 9.7 20.9 0.00 0.41 0.00 80 1007.9
20200227073932 3 250 4.8 20.9 0.00 0.41 0.00 81 1007.9
20200227073431 3 203 6.4 19.3 0.00 0.41 0.00 81 1008.1
20200227072932 3 206 12.9 24.1 0.00 0.41 0.00 82 1008.2
20200227072431 3 167 9.7 17.7 0.00 0.41 0.00 82 1008.2
20200227071931 3 217 4.8 12.9 0.00 0.41 0.00 82 1008.4
20200227071432 3 196 9.7 16.1 0.00 0.41 0.00 83 1008.6
20200227070932 3 160 3.2 17.7 0.00 0.41 0.00 83 1008.7
20200227070432 3 212 6.4 17.7 0.00 0.41 0.00 83 1008.9
20200227065932 3 195 8.0 22.5 0.00 0.43 0.00 83 1008.9
20200227065432 3 190 6.4 24.1 0.00 0.43 0.00 83 1008.9
20200227064931 3 182 8.0 17.7 0.00 0.43 0.00 83 1009.0
20200227064432 3 215 9.7 20.9 0.00 0.43 0.00 83 1009.1
20200227063932 3 236 9.7 24.1 0.00 0.43 0.00 84 1009.3
20200227063432 3 186 8.0 20.9 0.00 0.43 0.00 84 1009.4
20200227062931 3 209 9.7 20.9 0.00 0.43 0.00 84 1009.4
20200227062431 3 202 8.0 16.1 0.00 0.43 0.00 84 1009.5
20200227061931 3 180 9.7 20.9 0.00 0.43 0.00 84 1009.5
20200227061431 3 211 4.8 19.3 0.00 0.43 0.00 84 1009.5
20200227060931 3 209 8.0 20.9 0.00 0.43 0.00 84 1009.6
20200227060431 3 186 4.8 14.5 0.00 0.43 0.00 84 1009.8
20200227055931 3 258 8.0 16.1 0.00 0.43 0.00 85 1009.9
20200227055431 3 224 9.7 24.1 0.00 0.43 0.00 85 1009.9
20200227054931 3 182 9.7 16.1 0.00 0.43 0.00 84 1010.1
20200227054431 3 210 8.0 20.9 0.00 0.43 0.00 84 1010.1
20200227053931 3 183 11.3 19.3 0.00 0.43 0.00 84 1010.2
20200227053431 2 192 9.7 19.3 0.00 0.43 0.00 84 1010.2
20200227052930 2 216 9.7 17.7 0.00 0.43 0.00 84 1010.2
20200227052432 2 188 8.0 16.1 0.00 0.43 0.00 84 1010.2
20200227051931 2 199 6.4 11.3 0.00 0.43 0.00 84 1010.3
20200227051430 2 171 9.7 16.1 0.00 0.43 0.00 85 1010.3
20200227050931 2 188 11.3 22.5 0.00 0.43 0.00 85 1010.3
20200227050431 2 186 9.7 19.3 0.00 0.43 0.00 84 1010.4
20200227045930 2 198 6.4 19.3 0.00 0.43 0.00 84 1010.4
20200227045430 2 192 6.4 11.3 0.00 0.43 0.00 84 1010.5
20200227044932 2 202 9.7 12.9 0.00 0.43 0.00 84 1010.6
20200227044430 2 192 11.3 16.1 0.00 0.43 0.00 85 1010.6
20200227043930 2 186 9.7 14.5 0.00 0.43 0.00 85 1010.7
20200227043432 2 212 4.8 12.9 0.00 0.43 0.00 85 1010.6
20200227042932 2 234 6.4 16.1 0.00 0.43 0.00 85 1010.8
20200227042431 2 200 4.8 11.3 0.00 0.43 0.00 85 1010.8
20200227041930 2 189 6.4 12.9 0.00 0.43 0.00 86 1010.8
20200227041432 2 229 3.2 9.7 0.00 0.43 0.00 86 1010.9
20200227040930 2 211 4.8 12.9 0.00 0.43 0.00 86 1010.9
20200227040430 2 219 1.6 12.9 0.00 0.43 0.00 86 1011.1
20200227035932 2 242 8.0 19.3 0.00 0.43 0.00 86 1011.1
20200227035431 2 175 4.8 16.1 0.00 0.43 0.00 86 1011.2
20200227034931 2 212 4.8 17.7 0.00 0.43 0.00 86 1011.0
20200227034432 2 219 8.0 12.9 0.00 0.43 0.00 86 1011.1
20200227033932 2 208 8.0 16.1 0.00 0.43 0.00 86 1011.2
20200227033430 2 192 8.0 14.5 0.00 0.43 0.00 86 1011.2
20200227032932 2 183 8.0 17.7 0.00 0.43 0.00 86 1011.2
20200227032431 2 192 3.2 12.9 0.00 0.43 0.00 86 1011.2
20200227031930 2 234 6.4 16.1 0.00 0.43 0.00 86 1011.2
20200227031432 2 211 3.2 12.9 0.00 0.43 0.00 86 1011.3
20200227030932 2 189 3.2 16.1 0.00 0.43 0.00 86 1011.4
20200227030207 2 186 9.7 20.9 0.00 0.43 0.00 86 1011.2
20200227025705 2 177 11.3 19.3 0.00 0.43 0.00 86 1011.3
20200227025206 2 238 6.4 19.3 0.00 0.43 0.00 86 1011.5
20200227024706 2 181 9.7 17.7 0.00 0.43 0.00 86 1011.5
20200227024205 2 173 9.7 17.7 0.00 0.43 0.00 86 1011.6
20200227023705 2 198 11.3 19.3 0.00 0.43 0.00 86 1011.5
20200227023206 2 155 11.3 24.1 0.00 0.43 0.00 86 1011.6
20200227022706 2 192 8.0 19.3 0.00 0.43 0.00 86 1011.7
20200227022206 2 188 8.0 16.1 0.00 0.43 0.00 86 1011.7
20200227021706 2 187 9.7 14.5 0.00 0.43 0.00 86 1011.8
20200227021205 2 191 8.0 17.7 0.00 0.43 0.00 87 1011.8
20200227020706 2 188 8.0 19.3 0.00 0.43 0.00 87 1011.9
20200227020206 2 165 8.0 14.5 0.00 0.43 0.00 87 1011.8
20200227015705 2 213 6.4 16.1 0.00 0.43 0.00 86 1011.9
20200227015206 2 220 3.2 11.3 0.00 0.43 0.00 86 1011.7
20200227014707 2 192 6.4 12.9 0.00 0.43 0.00 86 1011.7
20200227014207 2 194 4.8 11.3 0.00 0.43 0.00 87 1011.7
20200227013706 2 208 1.6 9.7 0.00 0.43 0.00 86 1011.9
20200227013206 2 200 4.8 11.3 0.00 0.43 0.00 87 1011.9
20200227012707 2 166 6.4 8.0 0.00 0.43 0.00 86 1011.9
20200227012206 2 193 6.4 9.7 0.00 0.43 0.00 86 1012.0
20200227011705 2 186 3.2 9.7 0.00 0.43 0.00 86 1012.0
20200227011207 2 160 8.0 16.1 0.00 0.43 0.00 86 1012.0
20200227010705 2 197 4.8 14.5 0.00 0.43 0.00 86 1012.0
20200227010205 2 216 4.8 11.3 0.00 0.43 0.00 86 1012.1
20200227005707 2 235 9.7 16.1 0.00 0.43 0.00 87 1012.0
20200227005207 2 201 11.3 17.7 0.00 0.43 0.00 87 1012.0
20200227004706 2 192 4.8 14.5 0.00 0.43 0.00 87 1012.1
20200227004208 2 253 6.4 9.7 0.00 0.43 0.00 87 1012.0
20200227003707 2 207 1.6 11.3 0.00 0.43 0.00 87 1012.1
20200227003205 2 196 4.8 8.0 0.00 0.43 0.00 87 1012.1
20200227002707 2 181 6.4 16.1 0.00 0.43 0.00 87 1012.1
20200227002206 2 188 4.8 8.0 0.00 0.43 0.00 87 1012.1
20200227001705 2 202 3.2 9.7 0.00 0.43 0.00 87 1012.0
20200227001207 2 182 8.0 12.9 0.00 0.43 0.00 87 1011.8
20200227000706 2 174 4.8 14.5 0.00 0.43 0.00 87 1011.8
20200227000206 2 187 4.8 14.5 0.00 0.43 0.00 87 1011.9
20200226235707 2 202 8.0 17.7 0.00 0.53 0.00 87 1011.9
20200226235207 2 195 6.4 16.1 0.00 0.53 0.00 87 1012.0
20200226234705 2 204 4.8 12.9 0.00 0.53 0.00 87 1012.0
20200226234207 2 200 8.0 12.9 0.00 0.53 0.00 87 1011.9
20200226233707 2 185 8.0 12.9 0.00 0.53 0.00 87 1011.8
20200226233205 2 209 8.0 12.9 0.00 0.53 0.00 87 1011.9
20200226232707 2 207 4.8 11.3 0.00 0.53 0.00 87 1011.9
20200226232206 2 177 8.0 14.5 0.00 0.53 0.00 87 1012.0
20200226231706 2 188 11.3 16.1 0.00 0.53 0.00 87 1012.0
20200226231206 2 184 6.4 16.1 0.00 0.53 0.00 86 1012.0
20200226230706 2 159 9.7 20.9 0.00 0.53 0.00 86 1012.0
20200226230205 2 209 9.7 17.7 0.03 0.53 0.00 86 1012.0
20200226225707 2 189 6.4 19.3 0.05 0.61 0.61 86 1012.0
20200226225207 2 168 9.7 14.5 0.05 0.61 0.61 86 1011.9
20200226224705 2 202 11.3 19.3 0.05 0.61 0.61 86 1011.9
20200226224207 2 204 0.0 14.5 0.05 0.61 0.61 86 1011.8
20200226223707 2 186 6.4 12.9 0.05 0.61 0.61 86 1011.8
20200226223205 2 226 4.8 12.9 0.05 0.61 0.61 86 1011.8
20200226222707 2 200 6.4 11.3 0.05 0.61 0.61 86 1011.8
20200226222207 2 206 8.0 11.3 0.05 0.61 0.61 85 1011.8
20200226221706 2 177 6.4 14.5 0.05 0.61 0.61 85 1011.7
20200226221207 2 197 1.6 9.7 0.05 0.61 0.61 85 1011.8
20200226220706 2 197 6.4 11.3 0.05 0.61 0.61 84 1011.8
20200226220207 2 259 8.0 17.7 0.05 0.58 0.58 84 1011.9
20200226215706 3 227 9.7 17.7 0.03 0.71 0.56 83 1011.9
20200226215206 3 209 8.0 12.9 0.03 0.71 0.56 83 1011.8
20200226214707 3 177 6.4 11.3 0.00 0.71 0.53 84 1011.8
20200226214206 3 187 8.0 11.3 0.00 0.71 0.53 84 1011.6
20200226213706 3 195 4.8 11.3 0.00 0.71 0.53 84 1011.6
20200226213206 2 203 3.2 6.4 0.00 0.71 0.53 84 1011.6
20200226212707 2 192 1.6 9.7 0.00 0.71 0.53 84 1011.5
20200226212206 2 194 4.8 11.3 0.00 0.71 0.53 84 1011.5
20200226211706 2 173 4.8 12.9 0.00 0.71 0.53 84 1011.4
20200226211207 2 241 4.8 12.9 0.03 0.71 0.53 84 1011.4
20200226210707 2 227 6.4 11.3 0.03 0.71 0.53 85 1011.3
20200226210207 2 175 4.8 12.9 0.03 0.71 0.53 85 1011.3
20200226205707 2 179 8.0 12.9 0.03 0.71 0.53 85 1011.3
20200226205207 2 198 8.0 11.3 0.03 0.71 0.53 85 1011.3
20200226204707 2 211 8.0 11.3 0.03 0.71 0.53 85 1011.3
20200226204207 2 164 6.4 9.7 0.03 0.71 0.53 85 1011.3
20200226203707 2 196 6.4 11.3 0.03 0.71 0.53 85 1011.2
20200226203207 2 179 4.8 14.5 0.03 0.71 0.53 85 1011.2
20200226202706 2 202 4.8 16.1 0.03 0.71 0.53 85 1011.1
20200226202206 2 203 9.7 16.1 0.03 0.71 0.53 86 1011.1
20200226201707 2 195 8.0 14.5 0.03 0.71 0.53 86 1011.1
20200226201206 2 188 6.4 14.5 0.03 0.69 0.51 86 1010.9
20200226200706 2 189 6.4 12.9 0.03 0.69 0.51 86 1010.8
20200226200207 2 192 11.3 17.7 0.03 0.69 0.51 86 1010.8
20200226195706 2 196 8.0 14.5 0.03 0.69 0.51 86 1010.8
20200226195206 2 182 4.8 8.0 0.05 0.69 0.51 86 1010.8
20200226194707 2 186 4.8 11.3 0.05 0.69 0.51 86 1010.7
20200226194206 2 196 6.4 9.7 0.05 0.69 0.51 87 1010.7
20200226193707 2 200 4.8 9.7 0.05 0.69 0.51 87 1010.7
20200226193207 2 175 3.2 8.0 0.05 0.69 0.51 87 1010.7
20200226192706 2 186 6.4 9.7 0.05 0.69 0.51 87 1010.7
20200226192206 2 199 3.2 8.0 0.05 0.69 0.51 87 1010.7
20200226191706 2 202 3.2 8.0 0.05 0.69 0.51 87 1010.6
20200226191206 2 186 1.6 4.8 0.03 0.66 0.51 87 1010.6
20200226190706 2 178 1.6 6.4 0.05 0.66 0.51 87 1010.6
20200226190206 2 193 6.4 11.3 0.05 0.66 0.51 87 1010.6
20200226185707 2 198 6.4 8.0 0.05 0.66 0.51 86 1010.6
20200226185207 2 186 1.6 12.9 0.05 0.64 0.48 86 1010.6
20200226184707 2 203 0.0 8.0 0.05 0.64 0.48 86 1010.6
20200226184206 2 188 1.6 8.0 0.05 0.64 0.48 86 1010.5
20200226183706 1 192 3.2 6.4 0.05 0.64 0.48 86 1010.5
20200226183207 1 163 0.0 4.8 0.05 0.64 0.48 86 1010.4
20200226182706 1 232 1.6 3.2 0.05 0.64 0.48 85 1010.4
20200226182206 1 232 0.0 3.2 0.05 0.64 0.48 85 1010.3
20200226181706 1 236 0.0 3.2 0.05 0.64 0.48 84 1010.2
20200226181206 1 238 1.6 4.8 0.05 0.64 0.48 84 1010.2
20200226180707 1 240 1.6 4.8 0.03 0.61 0.46 84 1010.1
20200226180206 1 243 1.6 4.8 0.03 0.61 0.46 83 1010.0
20200226175706 2 246 1.6 6.4 0.03 0.61 0.46 82 1009.9
20200226175206 2 269 6.4 19.3 0.00 0.61 0.43 81 1009.8
20200226174705 3 254 3.2 9.7 0.00 0.61 0.43 80 1009.8
20200226174206 3 11 0.0 4.8 0.00 0.61 0.43 79 1009.6
20200226173706 3 10 4.8 12.9 0.00 0.61 0.43 77 1009.4
20200226173205 4 22 8.0 12.9 0.00 0.61 0.43 75 1009.0
20200226172707 4 257 3.2 8.0 0.00 0.61 0.43 74 1008.8
20200226172207 4 235 4.8 6.4 0.00 0.61 0.43 74 1008.7
20200226171706 5 251 3.2 9.7 0.00 0.61 0.43 73 1008.6
20200226171206 5 252 6.4 12.9 0.00 0.61 0.43 73 1008.5
20200226170706 5 277 6.4 14.5 0.00 0.61 0.43 73 1008.4
20200226170206 5 240 9.7 14.5 0.00 0.61 0.43 73 1008.3
20200226165706 4 224 8.0 17.7 0.00 0.61 0.43 72 1008.4
20200226165206 5 257 8.0 16.1 0.00 0.61 0.43 72 1008.3
20200226164706 5 219 6.4 16.1 0.00 0.61 0.43 73 1008.2
20200226164207 5 228 4.8 20.9 0.00 0.61 0.43 73 1008.2
20200226163706 5 235 12.9 19.3 0.00 0.61 0.43 73 1008.1
20200226163206 5 241 8.0 16.1 0.03 0.61 0.43 75 1008.1
20200226162707 4 234 6.4 9.7 0.03 0.61 0.43 75 1008.0
20200226162207 4 195 9.7 16.1 0.03 0.61 0.43 75 1008.0
20200226161706 4 230 3.2 11.3 0.03 0.61 0.43 75 1007.9
20200226161207 4 223 1.6 14.5 0.03 0.61 0.43 75 1007.9
20200226160706 4 246 4.8 11.3 0.03 0.61 0.43 75 1007.8
20200226160206 4 207 9.7 16.1 0.03 0.61 0.43 75 1007.8
20200226155706 4 209 6.4 19.3 0.03 0.89 0.43 75 1007.8
20200226155205 4 235 8.0 17.7 0.05 0.89 0.43 75 1007.6
20200226154706 4 229 16.1 20.9 0.05 0.89 0.43 76 1007.5
20200226154206 4 217 9.7 19.3 0.05 0.89 0.43 75 1007.5
20200226153706 4 229 11.3 20.9 0.05 0.89 0.43 76 1007.3
20200226153206 4 233 8.0 14.5 0.03 0.89 0.43 76 1007.2
20200226152705 4 196 9.7 17.7 0.03 0.89 0.43 77 1007.2
20200226152205 4 194 8.0 14.5 0.03 0.89 0.43 77 1007.1
20200226151705 4 171 8.0 14.5 0.03 0.89 0.43 78 1007.1
20200226151206 4 231 4.8 14.5 0.03 0.89 0.43 78 1006.9
20200226150705 4 233 9.7 16.1 0.03 0.89 0.43 79 1006.8
20200226150205 4 259 4.8 14.5 0.03 0.89 0.43 79 1006.8
20200226145707 4 233 6.4 20.9 0.03 0.91 0.43 80 1006.6
20200226145206 4 234 3.2 11.3 0.00 0.89 0.41 80 1006.6
20200226144707 4 267 3.2 9.7 0.00 0.89 0.41 80 1006.5
20200226144206 4 294 8.0 12.9 0.00 0.89 0.41 80 1006.3
20200226143706 4 285 8.0 19.3 0.00 0.89 0.41 80 1006.3
20200226143207 4 336 0.0 12.9 0.00 0.89 0.41 80 1006.2
20200226142706 4 261 8.0 16.1 0.00 0.89 0.41 79 1006.2
20200226142206 4 213 6.4 16.1 0.00 0.89 0.41 79 1006.1
20200226141706 4 213 4.8 12.9 0.00 0.89 0.41 79 1005.9
20200226141205 4 174 3.2 20.9 0.00 0.89 0.41 79 1005.7
20200226140705 4 202 8.0 16.1 0.00 0.89 0.41 79 1005.8
20200226140207 4 209 6.4 17.7 0.00 0.89 0.41 79 1005.6
20200226135706 4 250 8.0 16.1 0.00 0.89 0.41 79 1005.6
20200226135205 4 230 9.7 19.3 0.00 0.89 0.41 79 1005.5
20200226134707 4 203 8.0 17.7 0.00 0.89 0.41 79 1005.5
20200226134206 4 209 6.4 14.5 0.00 0.89 0.41 79 1005.5
20200226133705 5 211 6.4 17.7 0.00 0.89 0.41 78 1005.6
20200226133207 5 222 4.8 11.3 0.00 0.89 0.41 78 1005.6
20200226132706 5 244 3.2 14.5 0.00 0.89 0.41 78 1005.4
20200226132206 5 235 3.2 11.3 0.00 0.89 0.41 78 1005.3
20200226131706 5 197 3.2 12.9 0.00 0.89 0.41 78 1005.2
20200226131206 4 240 4.8 12.9 0.00 0.89 0.41 78 1005.1
20200226130706 4 220 4.8 12.9 0.00 0.89 0.41 79 1005.1
20200226130207 4 245 4.8 14.5 0.00 0.89 0.41 79 1005.1
20200226125706 4 234 8.0 14.5 0.00 0.91 0.41 79 1005.1
20200226125206 4 234 8.0 22.5 0.00 0.91 0.41 80 1005.0
20200226124707 4 258 4.8 14.5 0.00 0.91 0.41 81 1005.1
20200226124206 4 236 9.7 19.3 0.00 0.91 0.41 80 1005.1
20200226123706 4 224 4.8 14.5 0.00 0.91 0.41 80 1005.1
20200226123207 4 238 6.4 20.9 0.00 0.91 0.41 79 1005.1
20200226122706 4 261 3.2 17.7 0.00 0.91 0.41 80 1005.1
20200226122205 4 250 12.9 25.7 0.00 0.91 0.41 79 1005.0
20200226121707 4 271 11.3 27.4 0.00 0.91 0.41 80 1005.0